Location: Chochol
(49.7771°N, 14.9780°E)
Time: 23:54:37
(UTC+00:00)

Resurs 1-3 - Pass Details

Date: 09 April 2020
Orbit: 630 x 632 km, 97.9° (Epoch: 30 May)

Event Time Altitude Azimuth Distance (km) Brightness Sun altitude
Exits shadow 18:41:32 - 148° (SSE) 2,205 5.9 -9.5°
Reaches altitude 10° 18:42:01 10° 147° (SSE) 2,011 5.7 -9.5°
Maximum altitude 18:46:17 53° 71° (ENE) 781 3.8 -10.2°
Drops below altitude 10° 18:50:34 10° 355° (N) 2,027 6.6 -10.8°
Sets 18:52:49 0° 350° (N) 2,940 7.6 -11.1°
